Weather in Putila

Ukraine / Chernovtci District     47˚59′42″N   25˚06′13″E
temp.,
°C
wind,
m/s
gust,
m/s
humid.,
%
clouds,
%
prec.,
mm/h
press.,
hPa
HPBL,
m
29 november, sun
sun2923:00−5˚wsw119266 0.1 102124
02:00−5˚sw118749 0.1 102133
05:00−5˚sw127917 0.0 1021123
08:00−4˚sw127459 0.0 1021317
11:00−2˚sw1260100 0.0 1021636
14:00−1˚wsw1253100 0.0 1021993
17:00−4˚wsw117294 0.0 102226
20:00−5˚w118350 0.1 102328
30 november, mon
mon3023:00−5˚w008838 0.0 102436
02:00−5˚n019365 0.1 102481
05:00−5˚ene018898 0.1 1025153
08:00−5˚ne019398 0.2 102761
11:00−3˚ene116995 0.1 1027557
14:00−2˚nne116297 0.1 1027774
17:00−4˚ne117699 0.0 1028239
20:00−6˚ene009473 0.1 102941
1 december, tue
tue123:00−6˚sw009529 0.0 102961
02:00−7˚sw018920 0.0 102921
05:00−7˚s11780 0.0 102921
08:00−7˚s11690 0.0 102921
11:00−2˚e11430 0.0 1027300
14:00−1˚ene12370 0.0 1026622
17:00−5˚ene11620 0.0 102521
20:00−6˚se11750 0.0 102721
2 december, wed
wed223:00−6˚sse11730 0.0 102621
02:00−6˚s11660 0.0 102621
05:00−6˚s11720 0.0 102521
08:00−7˚s11851 0.0 102521
11:00−2˚e117123 0.0 1024275
14:00ene116731 0.0 1022582
17:00−4˚ne119166 0.0 102221
20:00−5˚sse119546 0.0 102321
3 december, thu
thu323:00−5˚ssw11929 0.0 102222
02:00−5˚ssw11895 0.0 102221
05:00−5˚ssw118539 0.0 102121
08:00−4˚ssw117570 0.0 102121
11:00+1˚sse114311 0.0 1021168
14:00+3˚ene113611 0.0 1018174
17:00−1˚s125349 0.0 101823
20:00−1˚ssw114572 0.0 101821